Regional Weather Roundup
Issued by NWS

Home | Current Version | Previous Version | Text Only | Print | Product List | Glossary Off
Versions: 1 2 3 4 5 6 7 8 9 10 11 12 13 14 15 16 17 18 19 20 21 22 23 24 25 26 27

000
ASUS45 KPSR 251610
RWRAZ

ARIZONA HOURLY REGIONAL WEATHER ROUNDUP
NATIONAL WEATHER SERVICE PHOENIX AZ
900 AM MST MON SEP 25 2017

NOTE: FAIR INDICATES FEW OR NO CLOUDS BELOW 12,000 FEET WITH NO
SIGNIFICANT WEATHER AND/OR OBSTRUCTIONS TO VISIBILITY.

AZZ001>003-036-251700-
NORTHWEST ARIZONA

CITY           SKY/WX    TMP DP  RH WIND       PRES   REMARKS
BULLHEAD CITY  PTSUNNY   72  34  25 N25G31    29.91R
KINGMAN        MOSUNNY   59  29  31 N8        30.01S
$$

AZZ004>008-015-016-018-251700-
NORTH CENTRAL ARIZONA

CITY           SKY/WX    TMP DP  RH WIND       PRES   REMARKS
GRAND CANYON   SUNNY     52  24  33 NE13      30.11R
WILLIAMS       SUNNY     54  18  24 SE6       30.08S
PRESCOTT       SUNNY     54  22  28 VRB5      30.03R
FLAGSTAFF      SUNNY     50  17  27 E9        30.10R
PAYSON           N/A     61  14  16 N8        30.01R
PAGE           SUNNY     56  27  32 N5        30.07R
$$

AZZ009>014-017-251700-
NORTHEAST ARIZONA

CITY           SKY/WX    TMP DP  RH WIND       PRES   REMARKS
WINSLOW        SUNNY     53  21  28 VRB5      30.06S
SAINT JOHNS    SUNNY     49  12  22 NW5       30.05S
WINDOW ROCK    SUNNY     50  17  27 CALM      30.10S
SHOW LOW       SUNNY     48  18  29 VRB5      30.08S
$$

AZZ540-542>544-546-548-251700-
GREATER PHOENIX AREA

CITY           SKY/WX    TMP DP  RH WIND       PRES   REMARKS
PHOENIX        MOSUNNY   69  24  18 E5        29.82S
BUCKEYE        SUNNY     72  19  14 N8        29.84S
GLENDALE       SUNNY     68  32  26 CALM      29.85R
LUKE AFB       SUNNY     71  26  18 NE5       29.82S
DEER VALLEY    SUNNY     70  18  13 CALM      29.84R
SCOTTSDALE     SUNNY     70  23  17 CALM      29.85S
MESA-FALCON    MOSUNNY   72  21  15 CALM      29.85R
MESA-GATEWAY   SUNNY     66  25  20 SE5       29.85S
CHANDLER       SUNNY     68  23  18 CALM      29.84R
$$

AZZ539-553-251700-
SOUTHWEST MARICOPA COUNTY AND PINAL COUNTY

CITY           SKY/WX    TMP DP  RH WIND       PRES   REMARKS
CASA GRANDE    NOT AVBL
GILA BEND      SUNNY     69  16  13 CALM      29.83R
$$

AZZ503-504-507>509-251700-
SOUTHEAST ARIZONA

CITY           SKY/WX    TMP DP  RH WIND       PRES   REMARKS
TUCSON         SUNNY     68  23  18 S5        29.90S
DAVIS-MONTHAN  SUNNY     69  21  16 SE3       29.88S
RYAN FIELD     SUNNY     68  21  17 MISG      29.89S
NOGALES        SUNNY     65  28  24 CALM      29.93S
SIERRA VISTA   SUNNY     67  20  16 E6        29.97S
DOUGLAS        SUNNY     64  26  23 CALM      29.95S
SAFFORD        SUNNY     67  23  19 CALM      29.90R
$$

AZZ532-251700-
SOUTHWEST ARIZONA

CITY           SKY/WX    TMP DP  RH WIND       PRES   REMARKS
YUMA           MOSUNNY   77  26  15 NW8       29.83R
$$

CAZ041-043-047-048-061-525>527-560>570-251700-
SOUTHERN CALIFORNIA

CITY           SKY/WX    TMP DP  RH WIND       PRES   REMARKS
DOWNTOWN L.A.  SUNNY     74  37  26 CALM      29.86R
L.A. AIRPORT   MOSUNNY   76  34  21 E3        29.86S
SAN DIEGO      MOSUNNY   70  39  32 NW3       29.88R
BURBANK        SUNNY     71  27  19 CALM      29.88R
ONTARIO        MOSUNNY   73  28  18 CALM      29.88S
RIVERSIDE      SUNNY     75  29  18 VRB7      29.89R
PALM SPRINGS   SUNNY     78  26  14 CALM      29.91R
EL CENTRO NAS  MOSUNNY   78  22  12 NW8       29.86R
IMPERIAL       MOSUNNY   77  39  25 NW8       29.84R
BLYTHE         SUNNY     77  30  17 N17       29.86R
NEEDLES        MOSUNNY   74  33  22 N21G31    29.91S
$$

NVZ020-UTZ003-251700-
SOUTHERN NEVADA-UTAH

CITY           SKY/WX    TMP DP  RH WIND       PRES   REMARKS
LAS VEGAS      MOSUNNY   66  29  24 NE8       30.01R
SALT LAKE CITY MOSUNNY   48  41  76 SE6       30.15R
$$

NMZ009-TXZ055-251700-
NEW MEXICO-WEST TEXAS

CITY           SKY/WX    TMP DP  RH WIND       PRES   REMARKS
ALBUQUERQUE    MOSUNNY   59  23  25 NW8       30.02R
EL PASO        MOSUNNY   79  40  24 SW13      29.89S
$$


........................KEY........................
SKY/WX - SKY CONDITION/WEATHER
TMP    - TEMPERATURE IN FAHRENHEIT
DP     - DEW POINT IN FAHRENHEIT
RH     - RELATIVE HUMIDITY IN PERCENT
WIND   - DIRECTION AND SPEED IN MILES PER HOUR (MPH)
VRB    - VARIABLE WIND DIRECTION
PRES   - MEAN SEA LEVEL PRESSURE IN INCHES OF MERCURY
         F - FALLING PRESSURE   R - RISING PRESSURE
         S - STEADY PRESSURE
VSB    - VISIBILITY IN MILES
HX     - HEAT INDEX IN FAHRENHEIT
WCI    - WIND CHILL INDEX IN FAHRENHEIT
TC     - TEMPERATURE IN CELSIUS WHICH IS ALSO KNOWN AS
         TEMPERATURE IN CENTIGRADE
AFB    - AIR FORCE BASE
         LUKE AFB IS LUKE AIR FORCE BASE
         DAVIS-MONTHAN IS DAVIS-MONTHAN AIR FORCE BASE
NAS    - NAVAL AIR STATION
         EL CENTRO NAS IS EL CENTRO NAVAL AIR STATION
N/A    - NOT AVAILABLE





USA.gov is the U.S. government's official web portal to all federal, state and local government web resources and services.